Regional Weather Roundup
Issued by NWS

Home | Current Version | Previous Version | Text Only | Print | Product List | Glossary On
Versions: 1 2 3 4 5 6 7 8 9 10 11 12 13 14 15 16 17 18 19 20 21 22 23 24 25 26 27 28 29 30 31 32 33 34 35 36 37 38 39 40 41 42 43 44 45 46 47 48 49 50
000
ASUS45 KSLC 041310
RWRUT

UTAH REGIONAL WEATHER ROUNDUP
NATIONAL WEATHER SERVICE SALT LAKE CITY UT
700 AM MDT FRI SEP 04 2015

UTZ001>011-023>025-041400-

NORTHERN UTAH

CITY           SKY/WX    TMP DP  RH WIND       PRES   REMARKS
BRIGHAM CITY   MOCLDY    59  44  56 NW6       29.84R
HILL AFB       PTCLDY    70  35  27 S16       29.86R
LOGAN          CLOUDY    54  46  74 CALM      29.85S
OGDEN          MOCLDY    72  35  25 S17       29.83R
PROVO AIRPORT  NOT AVBL
SALT LAKE CITY MOCLDY    72  36  26 S16       29.85R
VERNAL         PTCLDY    55  40  56 W5        29.99R
WENDOVER       CLEAR     57  37  47 NE7       29.83R
HEBER CITY     PTCLDY    68  32  26 S7G21     29.96R
WEST JORDAN    CLEAR     66  39  37 SE14      29.89R

$$

UTZ012>022-026-027-041400-

SOUTHERN/CENTRAL UTAH

CITY           SKY/WX    TMP DP  RH WIND       PRES   REMARKS
BLANDING       CLOUDY    61  48  62 CALM      30.17R
BRYCE CANYON   PTCLDY    41  35  79 SW3       30.16R
CEDAR CITY     CLEAR     63  42  46 S13       30.00R
DELTA          CLEAR     60  30  32 S7        29.93R
HANKSVILLE     CLEAR     70  41  35 S7        29.96S
MILFORD        CLEAR     63  36  36 S17       29.94R
MOAB/CYNLANDS  CLEAR     67  45  45 CALM      29.95R
PRICE          CLEAR     58  35  42 E6        30.02R
ST GEORGE      MOSUNNY   73  48  40 SE13      29.87R
KANAB          CLEAR     57  52  82 CALM      30.08R

$$

REGIONAL REPORTS     COLORADO/ARIZONA

CITY           SKY/WX    TMP DP  RH WIND       PRES   REMARKS
CRAIG, CO      CLEAR     44  41  89 CALM      30.09R
GRAND JUNCTION MOCLDY    66  49  54 S10       30.00R
RIFLE          MOCLDY    56  50  80 NW5       30.09R
MONTROSE       MOCLDY    56  47  71 S8        30.11S
CORTEZ         CLOUDY    59  47  64 N5        30.11R
PAGE, AZ       PTCLDY    71  53  52 S5        29.97R
GRAND CANYON   CLEAR     48  46  93 CALM      30.15S
KINGMAN        CLEAR     67  57  70 S6        29.93R
FLAGSTAFF      PTCLDY    50  49  96 CALM      30.18R

$$

REGIONAL REPORTS    NEVADA/IDAHO/WYOMING

CITY           SKY/WX    TMP DP  RH WIND       PRES   REMARKS
LAS VEGAS, NV  PTCLDY    77  39  25 SE3       29.76R
ELY            CLEAR     53  29  39 SW15      29.94R
ELKO           CLEAR     45  32  60 CALM      29.88R
POCATELLO, ID  CLEAR     51  37  58 SW10      29.90R
BURLEY         MOCLDY    48  38  68 S3        29.87R
EVANSTON, WY   PTCLDY    56  30  37 SW10      30.03R
ROCK SPRINGS   PTCLDY    58  36  43 CALM      30.04R
KEMMERER       PTCLDY    50  30  46 CALM      30.05R

$$


USA.gov is the U.S. government's official web portal to all federal, state and local government web resources and services.